User: anonymous   Login
Location: Newark
(35.6799°N, 139.7636°E)
Time: 06:07:40
(UTC+00:00)
Language:

Explorer 11/Cluster Stage 4 - Orbit

View from above orbital plane
View from above orbital plane
View from above satellite
View from above satellite

Ground track
Ground track

The orbit data is extracted from the following two-line orbital elements,

1   107U 61013A   19349.11088841  .00000500  00000-0  44945-4 0  9991
2   107  28.7879 148.1433 0547072 203.6661 153.7820 14.08876801939611
Epoch (UTC): 15 December 2019 02:39:40
Eccentricity: 0.0547072
inclination: 28.7879°
perigee height: 467 km
apogee height: 1259 km
right ascension of ascending node: 148.1433°
argument of perigee: 203.6661°
revolutions per day: 14.08876801
mean anomaly at epoch: 153.7820°
orbit number at epoch: 93961

The dashed part of the orbit path shows where the satellite is in the earth's shadow,  

DLR